一网星座-0528星 (ONEWEB-0528 )

导读 | 星芒AI

ONEWEB-0528 是 OneWeb 卫星星座计划中的一颗低轨通信卫星,旨在为全球提供高速互联网服务。该卫星采用标准化设计,具备高容量和高效率的通信能力,支持偏远和农村地区的网络接入。作为 OneWeb 扩展其卫星网络的一部分,ONEWEB-0528 有助于增强全球覆盖范围和系统冗余性。该卫星由 Arianespace 使用火箭发射入轨,是实现 OneWeb 全球宽带愿景的重要组成部分。

基本信息
目录编号:
54643
目录名称:
ONEWEB-0528
国际标识:
2022-166B
轨道中心:
EARTH
卫星名称:
一网星座-0528星
卫星全名:
一网星座-0528星 (ONEWEB-0528 )
卫星状态:
在轨 (已飞行1057 天)
发射日期:
2022-12-08 UTC
国别 :
英国 (GB)
星等 :
--
轨道信息
数据来源 国际轨道数据 AOE轨道数据
星历时间 2025-10-30T05:48:43+0800
7小时前
查看轨道信息
2025-10-25T17:00:00+0800
4天前
查看轨道信息
半长轴 7555.899km 7555.844km
偏心率 0.0001963 0.0002394
轨道倾角 87.917° 87.918°
近地点辐角 89.984° 102.753°
升交点赤经 289.946° 290.853°
平近点角 270.152° 295.240°
近地点 1176.28km 1175.9km
远地点 1179.248km 1179.518km
周期 108.940分钟 108.939分钟
每日圈数 13.218238 13.218382
详细信息
平衡模式:
三轴稳定
覆盖范围:
全球
运营商:
一网卫星公司
运营商所在国:
英国
制造商(研发单位):
一网卫星公司
制造商所在国:
英国
使用方式:
暂无
卫星简介
OneWeb卫星网络由648颗重约125公斤的微型卫星组成,运行在1200公里的轨道上。 每颗卫星都能够提供至少每秒8千兆位的吞吐量,以使用其高吞吐量的Ku频段有效载荷为家庭和移动平台提供互联网接入。该卫星仍在工作。
2D轨道图
3D轨道图
轨道高度分析图
轨道倾角分析图
轨道综合分析图
查看轨道综合分析图